{"data":{"norad_id":47378,"epoch":"2026-05-25T01:11:19.908672Z","epoch_age_seconds":67787,"freshness":"FRESH","line1":"1 47378U 21005AF  26145.04953598 -.00001306  00000+0 -30303-4 0  9992","line2":"2 47378  53.1608  19.0191 0001073  88.5189 271.5935 15.31723792295418","mean_motion":15.31723792,"eccentricity":0.0001073,"inclination_deg":53.1608,"raan_deg":19.0191,"arg_perigee_deg":88.5189,"mean_anomaly_deg":271.5935,"bstar":-3.0303e-5,"rev_number":29541,"period_min":94.011727670546,"perigee_km":469.93419653803,"apogee_km":471.40395032139,"semimajor_km":6848.8060734297,"source":"CELESTRAK","updated_at":"2026-05-25T13:38:16.528066Z"}}